This demonstration page uses our WeatherBlox Daily Observations layout. Learn more.

39.51506, -84.39828

Hourly Observations for August 15, 2020

Temp ( °F °C ) Dew Point ( °F °C ) Humidity (%) Winds ( mph kmh ) Pressure ( in mb ) Visibility ( mi km ) Precip ( " mm )
12:15 am 00:15 Cloudy N/A N/A N/A NNE 6 9 N/A 10 16.0934 0 0
12:35 am 00:35 Mostly Cloudy 70 20.9 68 20 95 95 NE 3 6 29.95 1014 10 16.0934 0 0
12:55 am 00:55 Mostly Cloudy 70 21.2 69 20.5 96 96 NNE 5 7 29.94 1014 10 16.0934 0 0
1:15 am 01:15 Mostly Cloudy 70 20.9 69 20.5 98 98 N 5 7 29.94 1014 10 16.0934 0 0
1:35 am 01:35 Mostly Cloudy with Light Rain 70 21.1 69 20.8 98 98 ENE 6 9 29.92 1013 10 16.0934 0 0
1:55 am 01:55 Cloudy with Light Rain 70 21 69 20.7 98 98 Calm 29.91 1013 10 16.0934 0 0
2:15 am 02:15 Mostly Cloudy 69 20.6 69 20.4 99 99 Calm 29.9 1013 10 16.0934 0 0
2:35 am 02:35 Clear 68 20.2 68 20.2 100 100 Calm 29.91 1013 10 16.0934 0 0
2:55 am 02:55 Clear 68 20 68 20 100 100 Calm 29.9 1013 10 16.0934 0 0
3:15 am 03:15 Partly Cloudy with Mist and Fog 68 20 N/A N/A Calm 29.9 1013 3.5 5.63269 0 0
3:35 am 03:35 Clear with Mist and Fog 66 19 N/A N/A Calm 29.91 1013 2.5 4.02335 0 0
3:55 am 03:55 Mostly Cloudy with Haze 66 19 N/A N/A W 3 6 29.91 1013 5 8.0467 0 0
4:15 am 04:15 Mostly Cloudy 68 20 N/A N/A NNE 5 7 29.91 1013 10 16.0934 0 0
4:35 am 04:35 Clear 68 20 N/A N/A N 8 13 29.92 1013 10 16.0934 0 0
4:55 am 04:55 Clear 68 20.1 68 20 99 99 N 5 7 29.93 1014 10 16.0934 0 0
5:15 am 05:15 Clear 68 20.1 68 19.9 99 99 Calm 29.93 1014 10 16.0934 0 0
5:35 am 05:35 Clear 68 20 67 19.7 98 98 NNE 5 7 29.93 1014 10 16.0934 0 0
5:55 am 05:55 Clear 68 19.9 67 19.4 97 97 NNE 7 11 29.93 1014 10 16.0934 0 0
6:15 am 06:15 Clear 68 19.8 66 19.1 96 96 NNE 5 7 29.94 1014 10 16.0934 0 0
6:35 am 06:35 Clear 67 19.7 66 19 96 96 Calm 29.94 1014 10 16.0934 0 0
6:55 am 06:55 Sunny 67 19.5 66 18.8 96 96 Calm 29.93 1013 10 16.0934 0 0
7:15 am 07:15 Sunny 67 19.3 66 18.7 96 96 Calm 29.93 1013 10 16.0934 0 0
7:35 am 07:35 Sunny 67 19.2 66 18.7 97 97 Calm 29.93 1013 10 16.0934 0 0
7:55 am 07:55 Sunny 67 19.2 65 18.6 96 96 Calm 29.94 1014 10 16.0934 0 0
8:15 am 08:15 Sunny 67 19.6 66 19 96 96 Calm 29.94 1014 10 16.0934 0 0
8:35 am 08:35 Mostly Cloudy 69 20.5 67 19.2 92 92 Calm 29.94 1014 10 16.0934 0 0
8:55 am 08:55 Partly Cloudy 70 21.2 67 19.3 89 89 Calm 29.94 1014 10 16.0934 0 0
9:15 am 09:15 Sunny 71 21.9 67 19.6 87 87 NE 3 6 29.94 1014 10 16.0934 0 0
9:35 am 09:35 Cloudy 73 22.5 68 19.9 85 85 Calm 29.94 1014 10 16.0934 0 0
9:55 am 09:55 Cloudy 74 23.1 68 19.9 82 82 Calm 29.94 1014 10 16.0934 0 0
10:15 am 10:15 Cloudy 75 23.8 68 20.1 80 80 NNE 3 6 29.94 1014 10 16.0934 0 0
10:35 am 10:35 Cloudy 75 24 69 20.3 80 80 NNW 6 9 29.94 1014 10 16.0934 0 0
10:55 am 10:55 Cloudy 76 24.3 70 20.9 81 81 NW 6 9 29.93 1014 10 16.0934 0 0
11:15 am 11:15 Partly Cloudy 76 24.5 70 20.9 80 80 N 5 7 29.93 1014 10 16.0934 0 0
11:35 am 11:35 Sunny 78 25.7 69 20.8 74 74 Calm 29.92 1013 10 16.0934 0 0
11:55 am 11:55 Sunny 79 26 70 21 74 74 NE 6 9 29.92 1013 10 16.0934 0 0
12:15 pm 12:15 Sunny 81 27.2 70 21.1 69 69 ENE 5 7 29.93 1013 10 16.0934 0 0
12:35 pm 12:35 Sunny 81 27 70 21 70 70 NE 6 9 29.92 1013 10 16.0934 0 0
12:55 pm 12:55 Partly Cloudy N/A N/A N/A NNE 3 6 N/A 10 16.0934 0 0
1:15 pm 13:15 Partly Cloudy 84 28.8 69 20.8 62 62 N 6 9 29.91 1013 10 16.0934 0 0
1:35 pm 13:35 Sunny 84 29 70 21 62 62 NNW 6 9 29.91 1013 10 16.0934 0 0
1:55 pm 13:55 Sunny 84 29 70 21 62 62 WNW 3 6 29.91 1013 10 16.0934 0 0
2:15 pm 14:15 Partly Cloudy N/A N/A N/A N 13 20 N/A 10 16.0934 0 0
2:35 pm 14:35 Partly Cloudy N/A N/A N/A NNW 8 13 N/A 10 16.0934 0 0
2:55 pm 14:55 Partly Cloudy N/A N/A N/A NE 3 6 N/A 10 16.0934 0 0
3:15 pm 15:15 Sunny N/A N/A N/A N 7 11 N/A 10 16.0934 0 0
3:35 pm 15:35 Partly Cloudy 86 30 68 20 55 55 NW 6 9 29.88 1012 10 16.0934 0 0
3:55 pm 15:55 Partly Cloudy N/A N/A N/A Calm N/A 10 16.0934 0 0
4:15 pm 16:15 Partly Cloudy N/A N/A N/A NNW 7 11 N/A 10 16.0934 0 0
4:35 pm 16:35 Sunny N/A N/A N/A NNW 7 11 N/A 10 16.0934 0 0
4:55 pm 16:55 Sunny N/A N/A N/A NNW 9 15 N/A 10 16.0934 0 0
5:15 pm 17:15 Partly Cloudy N/A N/A N/A NNW 8 13 N/A 10 16.0934 0 0
5:35 pm 17:35 Sunny N/A N/A N/A NNW 8 13 N/A 10 16.0934 0 0
5:55 pm 17:55 Partly Cloudy N/A N/A N/A N 8 13 N/A 10 16.0934 0 0
6:15 pm 18:15 Sunny N/A N/A N/A NNW 7 11 N/A 10 16.0934 0 0
6:35 pm 18:35 Sunny 86 30.1 67 19.7 54 54 NNW 5 7 29.86 1011 10 16.0934 0 0
6:55 pm 18:55 Mostly Cloudy 86 30 68 19.9 55 55 NW 6 9 29.85 1011 10 16.0934 0 0
7:15 pm 19:15 Mostly Cloudy 86 29.9 69 20.3 56 56 N 5 7 29.86 1011 10 16.0934 0 0
7:35 pm 19:35 Mostly Cloudy 86 30 68 20 55 55 NE 5 7 29.86 1011 10 16.0934 0 0
7:55 pm 19:55 Mostly Cloudy N/A N/A N/A ESE 6 9 N/A 10 16.0934 0 0
8:15 pm 20:15 Partly Cloudy N/A N/A N/A ESE 10 17 N/A 10 16.0934 0 0
8:35 pm 20:35 Cloudy 81 27 70 21 70 70 ESE 7 11 29.88 1012 10 16.0934 0 0
8:55 pm 20:55 Partly Cloudy 81 27 70 21 70 70 E 6 9 29.89 1012 10 16.0934 0 0
9:15 pm 21:15 Clear 79 25.9 71 21.7 78 78 E 5 7 29.91 1013 10 16.0934 0 0
9:35 pm 21:35 Partly Cloudy 79 26 72 22 79 79 NE 5 7 29.92 1013 10 16.0934 0 0
9:55 pm 21:55 Clear 75 24 72 22 89 89 ENE 3 6 29.93 1013 10 16.0934 0 0
10:15 pm 22:15 Clear N/A N/A N/A ENE 5 7 N/A 10 16.0934 0 0
10:35 pm 22:35 Clear 73 22.7 69 20.6 88 88 ENE 5 7 29.93 1013 10 16.0934 0 0
10:55 pm 22:55 Clear 73 22.6 69 20.5 88 88 ENE 5 7 29.94 1014 10 16.0934 0 0
11:15 pm 23:15 Clear 73 22.8 69 20.4 86 86 Calm 29.94 1014 10 16.0934 0 0
11:35 pm 23:35 Clear 72 22.4 69 20.6 90 90 Calm 29.94 1014 10 16.0934 0 0
11:55 pm 23:55 Clear 73 22.5 68 20.2 87 87 Calm 29.93 1014 10 16.0934 0 0

Powered by AerisWeather